| time (UTC) | temp F | wind direction | speed MPH | gust MPH | rain 1hr in | rain 24hr in | rain mn in | humidity % | barometer mb |
| 20260506082148 | 56 | 295 | 0.0 | 4.0 | 0.00 | 0.00 | 0.00 | 78 | 1019.2 |
| 20260506081650 | 56 | 295 | 2.0 | 4.0 | 0.00 | 0.00 | 0.00 | 79 | 1019.2 |
| 20260506081148 | 56 | 295 | 2.0 | 4.0 | 0.00 | 0.00 | 0.00 | 79 | 1019.2 |
| 20260506080916 | 56 | 295 | 2.0 | 7.0 | 0.00 | 0.00 | 0.00 | 80 | 1019.2 |
| 20260506080148 | 56 | 295 | 3.0 | 7.0 | 0.00 | 0.00 | 0.00 | 80 | 1019.2 |
| 20260506073148 | 55 | 272 | 7.0 | 9.0 | 0.00 | 0.00 | 0.00 | 79 | 1019.1 |
| 20260506072649 | 55 | 251 | 6.0 | 9.0 | 0.00 | 0.00 | 0.00 | 79 | 1019.0 |
| 20260506072147 | 56 | 274 | 6.0 | 7.0 | 0.00 | 0.00 | 0.00 | 77 | 1019.0 |
| 20260506071649 | 56 | 276 | 4.0 | 5.0 | 0.00 | 0.00 | 0.00 | 76 | 1019.0 |
| 20260506071147 | 56 | 278 | 4.0 | 5.0 | 0.00 | 0.00 | 0.00 | 75 | 1019.0 |
| 20260506070906 | 57 | 223 | 4.0 | 5.0 | 0.00 | 0.00 | 0.00 | 74 | 1018.9 |
| 20260506070408 | 58 | 221 | 2.0 | 4.0 | 0.00 | 0.00 | 0.00 | 73 | 1018.8 |
| 20260506062147 | 60 | 10 | 0.0 | 4.0 | 0.00 | 0.00 | 0.00 | 70 | 1018.4 |
| 20260506061648 | 60 | 10 | 2.0 | 4.0 | 0.00 | 0.00 | 0.00 | 70 | 1018.2 |
| 20260506061146 | 60 | 0 | 2.0 | 3.0 | 0.00 | 0.00 | 0.00 | 70 | 1018.2 |
| 20260506060911 | 60 | 0 | 0.0 | 3.0 | 0.00 | 0.00 | 0.00 | 70 | 1018.3 |
| 20260506060147 | 60 | 0 | 1.0 | 4.0 | 0.00 | 0.00 | 0.00 | 70 | 1018.3 |
| 20260506051144 | 61 | 93 | 4.0 | 6.0 | 0.00 | 0.00 | 0.00 | 68 | 1017.9 |
| 20260506050646 | 61 | 307 | 2.0 | 4.0 | 0.00 | 0.00 | 0.00 | 68 | 1017.9 |
| 20260506050144 | 61 | 302 | 2.0 | 5.0 | 0.00 | 0.00 | 0.00 | 68 | 1017.8 |
| 20260506044644 | 61 | 305 | 1.0 | 5.0 | 0.00 | 0.00 | 0.00 | 68 | 1017.6 |
| 20260506044405 | 61 | 303 | 3.0 | 6.0 | 0.00 | 0.00 | 0.00 | 69 | 1017.5 |
| 20260506043643 | 61 | 300 | 0.0 | 9.0 | 0.00 | 0.00 | 0.00 | 68 | 1017.5 |
| 20260506043144 | 61 | 292 | 6.0 | 11.0 | 0.00 | 0.00 | 0.00 | 70 | 1017.5 |
| 20260506042909 | 61 | 290 | 7.0 | 11.0 | 0.00 | 0.00 | 0.00 | 70 | 1017.4 |
| 20260506042143 | 60 | 274 | 8.0 | 12.0 | 0.00 | 0.00 | 0.00 | 70 | 1017.3 |
| 20260506041643 | 60 | 296 | 9.0 | 12.0 | 0.00 | 0.00 | 0.00 | 71 | 1017.4 |
| 20260506041405 | 59 | 271 | 8.0 | 13.0 | 0.00 | 0.00 | 0.00 | 71 | 1017.2 |
| 20260506040642 | 60 | 286 | 8.0 | 14.0 | 0.00 | 0.00 | 0.00 | 71 | 1017.2 |
| 20260506040141 | 60 | 261 | 10.0 | 16.0 | 0.00 | 0.00 | 0.00 | 71 | 1017.2 |
| 20260506035636 | 60 | 259 | 10.0 | 16.0 | 0.00 | 0.00 | 0.00 | 70 | 1017.2 |
| 20260506035134 | 60 | 289 | 9.0 | 14.0 | 0.00 | 0.00 | 0.00 | 70 | 1017.1 |
| 20260506034635 | 60 | 252 | 10.0 | 14.0 | 0.00 | 0.00 | 0.00 | 69 | 1017.0 |
| 20260506034133 | 60 | 276 | 8.0 | 11.0 | 0.00 | 0.00 | 0.00 | 69 | 1016.9 |
| 20260506033633 | 61 | 283 | 8.0 | 14.0 | 0.00 | 0.00 | 0.00 | 68 | 1016.8 |
| 20260506033134 | 61 | 275 | 10.0 | 15.0 | 0.00 | 0.00 | 0.00 | 68 | 1016.7 |
| 20260506032632 | 61 | 278 | 9.0 | 17.0 | 0.00 | 0.00 | 0.00 | 68 | 1016.6 |
| 20260506032132 | 61 | 276 | 9.0 | 17.0 | 0.00 | 0.00 | 0.00 | 67 | 1016.5 |
| 20260506031633 | 61 | 269 | 13.0 | 17.0 | 0.00 | 0.00 | 0.00 | 67 | 1016.3 |
| 20260506031131 | 62 | 269 | 11.0 | 17.0 | 0.00 | 0.00 | 0.00 | 66 | 1016.4 |
| 20260506030854 | 61 | 299 | 7.0 | 14.0 | 0.00 | 0.00 | 0.00 | 66 | 1016.3 |
| 20260506030131 | 61 | 279 | 10.0 | 13.0 | 0.00 | 0.00 | 0.00 | 67 | 1016.3 |
| 20260506025854 | 61 | 275 | 9.0 | 17.0 | 0.00 | 0.00 | 0.00 | 67 | 1016.3 |
| 20260506025131 | 61 | 293 | 9.0 | 19.0 | 0.00 | 0.00 | 0.00 | 67 | 1016.3 |
| 20260506024631 | 62 | 279 | 14.0 | 19.0 | 0.00 | 0.00 | 0.00 | 66 | 1016.3 |
| 20260506024131 | 62 | 266 | 11.0 | 21.0 | 0.00 | 0.00 | 0.00 | 66 | 1016.3 |
| 20260506023632 | 62 | 252 | 14.0 | 21.0 | 0.00 | 0.00 | 0.00 | 65 | 1016.1 |
| 20260506023131 | 62 | 271 | 13.0 | 19.0 | 0.00 | 0.00 | 0.00 | 65 | 1016.0 |
| 20260506022631 | 63 | 258 | 13.0 | 18.0 | 0.00 | 0.00 | 0.00 | 64 | 1016.1 |
| 20260506022351 | 63 | 269 | 14.0 | 21.0 | 0.00 | 0.00 | 0.00 | 64 | 1016.0 |
| 20260506021631 | 64 | 261 | 16.0 | 21.0 | 0.00 | 0.00 | 0.00 | 63 | 1016.0 |
| 20260506021131 | 64 | 257 | 13.0 | 19.0 | 0.00 | 0.00 | 0.00 | 63 | 1016.0 |
| 20260506020631 | 65 | 247 | 14.0 | 18.0 | 0.00 | 0.00 | 0.00 | 62 | 1016.1 |
| 20260506020131 | 65 | 261 | 12.0 | 20.0 | 0.00 | 0.00 | 0.00 | 62 | 1016.1 |
| 20260506015631 | 65 | 245 | 15.0 | 20.0 | 0.00 | 0.00 | 0.00 | 61 | 1016.0 |
| 20260506015132 | 65 | 257 | 13.0 | 18.0 | 0.00 | 0.00 | 0.00 | 61 | 1015.9 |
| 20260506014633 | 66 | 248 | 11.0 | 18.0 | 0.00 | 0.00 | 0.00 | 60 | 1015.8 |
| 20260506014108 | 66 | 254 | 10.0 | 17.0 | 0.00 | 0.00 | 0.00 | 61 | 1015.9 |
| 20260506013608 | 65 | 265 | 11.0 | 22.0 | 0.00 | 0.00 | 0.00 | 60 | 1015.8 |
| 20260506013321 | 65 | 272 | 12.0 | 22.0 | 0.00 | 0.00 | 0.00 | 60 | 1015.7 |
| 20260506012822 | 65 | 269 | 16.0 | 22.0 | 0.00 | 0.00 | 0.00 | 60 | 1015.7 |
| 20260506012104 | 65 | 264 | 10.0 | 20.0 | 0.00 | 0.00 | 0.00 | 59 | 1015.7 |
| 20260506011603 | 66 | 286 | 12.0 | 20.0 | 0.00 | 0.00 | 0.00 | 58 | 1015.7 |
| 20260506011102 | 67 | 251 | 13.0 | 20.0 | 0.00 | 0.00 | 0.00 | 58 | 1015.7 |
| 20260506010604 | 67 | 275 | 9.0 | 16.0 | 0.00 | 0.00 | 0.00 | 57 | 1015.7 |
| 20260506005603 | 68 | 226 | 11.0 | 17.0 | 0.00 | 0.00 | 0.00 | 56 | 1015.7 |
| 20260506005102 | 68 | 245 | 8.0 | 19.0 | 0.00 | 0.00 | 0.00 | 56 | 1015.8 |
| 20260506004829 | 68 | 278 | 11.0 | 19.0 | 0.00 | 0.00 | 0.00 | 55 | 1015.7 |
| 20260506004102 | 69 | 286 | 11.0 | 17.0 | 0.00 | 0.00 | 0.00 | 55 | 1015.7 |
| 20260506003833 | 69 | 255 | 9.0 | 15.0 | 0.00 | 0.00 | 0.00 | 55 | 1015.7 |
| 20260506003102 | 68 | 274 | 10.0 | 15.0 | 0.00 | 0.00 | 0.00 | 56 | 1015.7 |
| 20260506002602 | 68 | 271 | 9.0 | 18.0 | 0.00 | 0.00 | 0.00 | 56 | 1015.7 |
| 20260506002101 | 67 | 234 | 11.0 | 18.0 | 0.00 | 0.00 | 0.00 | 57 | 1015.6 |
| 20260506001550 | 67 | 244 | 12.0 | 16.0 | 0.00 | 0.00 | 0.00 | 57 | 1015.7 |
| 20260506001051 | 66 | 217 | 9.0 | 16.0 | 0.00 | 0.00 | 0.00 | 58 | 1015.7 |
| 20260506000811 | 66 | 245 | 10.0 | 16.0 | 0.00 | 0.00 | 0.00 | 57 | 1015.5 |
| 20260506000041 | 66 | 241 | 9.0 | 19.0 | 0.00 | 0.00 | 0.00 | 57 | 1015.4 |
| 20260505235540 | 67 | 259 | 13.0 | 21.0 | 0.00 | 0.00 | 0.00 | 56 | 1015.4 |
| 20260505235038 | 67 | 254 | 11.0 | 21.0 | 0.00 | 0.00 | 0.00 | 55 | 1015.3 |
| 20260505234539 | 68 | 251 | 9.0 | 20.0 | 0.00 | 0.00 | 0.00 | 54 | 1015.3 |
| 20260505234038 | 69 | 252 | 12.0 | 20.0 | 0.00 | 0.00 | 0.00 | 54 | 1015.2 |
| 20260505233537 | 69 | 244 | 7.0 | 22.0 | 0.00 | 0.00 | 0.00 | 56 | 1015.4 |
| 20260505233303 | 69 | 234 | 13.0 | 22.0 | 0.00 | 0.00 | 0.00 | 53 | 1015.3 |
| 20260505232537 | 69 | 261 | 13.0 | 24.0 | 0.00 | 0.00 | 0.00 | 54 | 1015.4 |
| 20260505232036 | 69 | 227 | 12.0 | 28.0 | 0.00 | 0.00 | 0.00 | 53 | 1015.4 |
| 20260505231536 | 69 | 235 | 15.0 | 28.0 | 0.00 | 0.00 | 0.00 | 54 | 1015.4 |
| 20260505231256 | 70 | 228 | 14.0 | 28.0 | 0.00 | 0.00 | 0.00 | 54 | 1015.3 |
| 20260505230536 | 69 | 231 | 11.0 | 28.0 | 0.00 | 0.00 | 0.00 | 56 | 1015.5 |
| 20260505230036 | 69 | 219 | 14.0 | 21.0 | 0.00 | 0.00 | 0.00 | 56 | 1015.4 |
| 20260505225757 | 67 | 224 | 12.0 | 19.0 | 0.00 | 0.00 | 0.00 | 57 | 1015.7 |
| 20260505225257 | 66 | 238 | 10.0 | 23.0 | 0.00 | 0.00 | 0.00 | 59 | 1015.7 |
| 20260505224536 | 65 | 224 | 11.0 | 23.0 | 0.00 | 0.00 | 0.00 | 59 | 1015.8 |
| 20260505224256 | 66 | 247 | 17.0 | 21.0 | 0.00 | 0.00 | 0.00 | 58 | 1015.9 |
| 20260505223535 | 66 | 223 | 15.0 | 21.0 | 0.00 | 0.00 | 0.00 | 57 | 1015.9 |
| 20260505223257 | 67 | 233 | 12.0 | 29.0 | 0.00 | 0.00 | 0.00 | 57 | 1015.9 |
| 20260505222801 | 68 | 252 | 11.0 | 29.0 | 0.00 | 0.00 | 0.00 | 55 | 1016.0 |
| 20260505222301 | 69 | 212 | 12.0 | 21.0 | 0.00 | 0.00 | 0.00 | 54 | 1016.0 |
| 20260505221535 | 69 | 196 | 14.0 | 19.0 | 0.00 | 0.00 | 0.00 | 55 | 1016.1 |
| 20260505221032 | 68 | 200 | 9.0 | 19.0 | 0.00 | 0.00 | 0.00 | 57 | 1016.2 |
| 20260505220532 | 67 | 274 | 14.0 | 20.0 | 0.00 | 0.00 | 0.00 | 58 | 1016.2 |
| 20260505220513 | 67 | 261 | 15.0 | 20.0 | 0.00 | 0.00 | 0.00 | 57 | 1016.3 |
| 20260505215525 | 67 | 220 | 13.0 | 22.0 | 0.00 | 0.00 | 0.00 | 57 | 1016.3 |
| 20260505215017 | 67 | 255 | 13.0 | 24.0 | 0.00 | 0.00 | 0.00 | 57 | 1016.3 |
| 20260505214518 | 68 | 241 | 14.0 | 24.0 | 0.00 | 0.00 | 0.00 | 54 | 1016.3 |
| 20260505214015 | 69 | 238 | 11.0 | 23.0 | 0.00 | 0.00 | 0.00 | 55 | 1016.2 |
| 20260505213516 | 69 | 292 | 15.0 | 23.0 | 0.00 | 0.00 | 0.00 | 56 | 1016.2 |
| 20260505213017 | 69 | 235 | 14.0 | 23.0 | 0.00 | 0.00 | 0.00 | 56 | 1016.3 |
| 20260505212514 | 68 | 203 | 17.0 | 24.0 | 0.00 | 0.00 | 0.00 | 55 | 1016.3 |
| 20260505212004 | 68 | 224 | 14.0 | 24.0 | 0.00 | 0.00 | 0.00 | 56 | 1016.2 |
| 20260505211504 | 69 | 176 | 11.0 | 23.0 | 0.00 | 0.00 | 0.00 | 53 | 1016.4 |
| 20260505211004 | 70 | 255 | 12.0 | 26.0 | 0.00 | 0.00 | 0.00 | 54 | 1016.3 |
| 20260505210502 | 70 | 244 | 17.0 | 26.0 | 0.00 | 0.00 | 0.00 | 52 | 1016.1 |
| 20260505210003 | 69 | 207 | 13.0 | 24.0 | 0.00 | 0.00 | 0.00 | 54 | 1016.4 |
| 20260505205503 | 69 | 240 | 10.0 | 24.0 | 0.00 | 0.00 | 0.00 | 53 | 1016.5 |
| 20260505205003 | 69 | 255 | 13.0 | 24.0 | 0.00 | 0.00 | 0.00 | 53 | 1016.4 |
| 20260505204503 | 69 | 295 | 16.0 | 24.0 | 0.00 | 0.00 | 0.00 | 54 | 1016.4 |
| 20260505204003 | 69 | 248 | 15.0 | 20.0 | 0.00 | 0.00 | 0.00 | 54 | 1016.4 |
| 20260505203720 | 68 | 259 | 9.0 | 24.0 | 0.00 | 0.00 | 0.00 | 55 | 1016.5 |
| 20260505203231 | 68 | 237 | 19.0 | 27.0 | 0.00 | 0.00 | 0.00 | 54 | 1016.4 |
| 20260505202503 | 68 | 281 | 17.0 | 27.0 | 0.00 | 0.00 | 0.00 | 53 | 1016.3 |
| 20260505202003 | 69 | 265 | 18.0 | 23.0 | 0.00 | 0.00 | 0.00 | 53 | 1016.3 |
| 20260505201726 | 69 | 265 | 13.0 | 27.0 | 0.00 | 0.00 | 0.00 | 52 | 1016.4 |
| 20260505201003 | 69 | 305 | 16.0 | 28.0 | 0.00 | 0.00 | 0.00 | 56 | 1016.4 |
| 20260505200454 | 68 | 247 | 17.0 | 28.0 | 0.00 | 0.00 | 0.00 | 55 | 1016.4 |
| 20260505195949 | 68 | 269 | 17.0 | 23.0 | 0.00 | 0.00 | 0.00 | 55 | 1016.4 |
| 20260505195449 | 67 | 237 | 13.0 | 27.0 | 0.00 | 0.00 | 0.00 | 57 | 1016.5 |
| 20260505194949 | 66 | 238 | 14.0 | 27.0 | 0.00 | 0.00 | 0.00 | 58 | 1016.7 |
| 20260505194722 | 67 | 210 | 14.0 | 22.0 | 0.00 | 0.00 | 0.00 | 56 | 1016.7 |
| 20260505194211 | 67 | 278 | 14.0 | 22.0 | 0.00 | 0.00 | 0.00 | 57 | 1016.5 |
| 20260505193645 | 66 | 193 | 15.0 | 19.0 | 0.00 | 0.00 | 0.00 | 58 | 1016.6 |
| 20260505193627 | 67 | 213 | 9.0 | 19.0 | 0.00 | 0.00 | 0.00 | 59 | 1016.8 |
| 20260505192433 | 66 | 186 | 12.0 | 19.0 | 0.00 | 0.00 | 0.00 | 59 | 1016.7 |
| 20260505191931 | 67 | 209 | 10.0 | 19.0 | 0.00 | 0.00 | 0.00 | 58 | 1016.7 |
| 20260505191431 | 68 | 206 | 14.0 | 19.0 | 0.00 | 0.00 | 0.00 | 55 | 1016.7 |
| 20260505190932 | 68 | 172 | 9.0 | 16.0 | 0.00 | 0.00 | 0.00 | 55 | 1016.7 |
| 20260505190431 | 68 | 190 | 9.0 | 17.0 | 0.00 | 0.00 | 0.00 | 54 | 1016.7 |
| 20260505185930 | 69 | 178 | 9.0 | 17.0 | 0.00 | 0.00 | 0.00 | 55 | 1016.7 |
| 20260505185430 | 68 | 142 | 5.0 | 12.0 | 0.00 | 0.00 | 0.00 | 59 | 1016.6 |
| 20260505185154 | 67 | 209 | 6.0 | 21.0 | 0.00 | 0.00 | 0.00 | 58 | 1016.8 |
| 20260505184431 | 66 | 214 | 13.0 | 21.0 | 0.00 | 0.00 | 0.00 | 56 | 1016.8 |
| 20260505183931 | 66 | 250 | 16.0 | 20.0 | 0.00 | 0.00 | 0.00 | 57 | 1016.7 |
| 20260505183430 | 66 | 234 | 13.0 | 20.0 | 0.00 | 0.00 | 0.00 | 58 | 1016.7 |
| 20260505183129 | 0 | 0.0 | 19.0 | 0.00 | 0.00 | 0.00 | 1016.9 | ||
| 20260505183120 | 66 | 262 | 14.0 | 19.0 | 0.00 | 0.00 | 0.00 | 57 | 1016.7 |
| 20260505181928 | 66 | 257 | 13.0 | 19.0 | 0.00 | 0.00 | 0.00 | 58 | 1016.9 |
| 20260505181427 | 65 | 268 | 10.0 | 20.0 | 0.00 | 0.00 | 0.00 | 59 | 1016.8 |
| 20260505180927 | 65 | 255 | 15.0 | 20.0 | 0.00 | 0.00 | 0.00 | 59 | 1016.8 |
| 20260505180428 | 65 | 261 | 13.0 | 19.0 | 0.00 | 0.00 | 0.00 | 60 | 1016.9 |
| 20260505175927 | 64 | 268 | 11.0 | 21.0 | 0.00 | 0.00 | 0.00 | 60 | 1016.8 |
| 20260505175427 | 64 | 250 | 14.0 | 21.0 | 0.00 | 0.00 | 0.00 | 60 | 1016.8 |
| 20260505174927 | 64 | 252 | 14.0 | 20.0 | 0.00 | 0.00 | 0.00 | 60 | 1016.8 |
| 20260505174427 | 64 | 252 | 13.0 | 24.0 | 0.00 | 0.00 | 0.00 | 61 | 1016.6 |
| 20260505173926 | 64 | 276 | 16.0 | 24.0 | 0.00 | 0.00 | 0.00 | 61 | 1016.8 |
| 20260505173426 | 64 | 264 | 17.0 | 23.0 | 0.00 | 0.00 | 0.00 | 60 | 1016.8 |
| 20260505172926 | 63 | 278 | 18.0 | 27.0 | 0.00 | 0.00 | 0.00 | 62 | 1016.8 |
| 20260505172427 | 63 | 279 | 19.0 | 29.0 | 0.00 | 0.00 | 0.00 | 62 | 1016.6 |
| 20260505171926 | 63 | 271 | 23.0 | 29.0 | 0.00 | 0.00 | 0.00 | 62 | 1016.4 |
| 20260505171651 | 63 | 262 | 20.0 | 28.0 | 0.00 | 0.00 | 0.00 | 61 | 1016.5 |
| 20260505170925 | 63 | 298 | 19.0 | 22.0 | 0.00 | 0.00 | 0.00 | 61 | 1016.4 |
| 20260505170426 | 63 | 272 | 15.0 | 21.0 | 0.00 | 0.00 | 0.00 | 62 | 1016.3 |
| 20260505165925 | 62 | 247 | 14.0 | 21.0 | 0.00 | 0.00 | 0.00 | 60 | 1016.4 |
| 20260505165425 | 64 | 257 | 7.0 | 19.0 | 0.00 | 0.00 | 0.00 | 59 | 1016.5 |
| 20260505165152 | 65 | 228 | 7.0 | 14.0 | 0.00 | 0.00 | 0.00 | 56 | 1016.7 |
| 20260505164425 | 65 | 134 | 2.0 | 4.0 | 0.00 | 0.00 | 0.00 | 56 | 1016.8 |
| 20260505164149 | 65 | 104 | 2.0 | 7.0 | 0.00 | 0.00 | 0.00 | 58 | 1016.7 |
| 20260505163425 | 64 | 185 | 3.0 | 7.0 | 0.00 | 0.00 | 0.00 | 58 | 1016.6 |
| 20260505162926 | 63 | 94 | 3.0 | 7.0 | 0.00 | 0.00 | 0.00 | 59 | 1016.6 |
| 20260505162904 | 63 | 97 | 2.0 | 9.0 | 0.00 | 0.00 | 0.00 | 59 | 1016.5 |
| 20260505161924 | 63 | 97 | 4.0 | 9.0 | 0.00 | 0.00 | 0.00 | 58 | 1016.4 |
| 20260505161425 | 63 | 87 | 1.0 | 9.0 | 0.00 | 0.00 | 0.00 | 56 | 1016.4 |
| 20260505160924 | 64 | 79 | 5.0 | 7.0 | 0.00 | 0.00 | 0.00 | 57 | 1016.3 |
| 20260505160425 | 63 | 131 | 2.0 | 6.0 | 0.00 | 0.00 | 0.00 | 60 | 1016.2 |
| 20260505152924 | 57 | 89 | 2.0 | 4.0 | 0.00 | 0.00 | 0.00 | 66 | 1016.0 |
| 20260505152425 | 57 | 8 | 2.0 | 5.0 | 0.00 | 0.00 | 0.00 | 66 | 1015.9 |
| 20260505151925 | 57 | 334 | 2.0 | 9.0 | 0.00 | 0.00 | 0.00 | 66 | 1016.0 |
| 20260505151424 | 57 | 299 | 2.0 | 9.0 | 0.00 | 0.00 | 0.00 | 67 | 1015.9 |
| 20260505151146 | 57 | 279 | 5.0 | 9.0 | 0.00 | 0.00 | 0.00 | 67 | 1015.8 |
| 20260505150646 | 57 | 252 | 4.0 | 7.0 | 0.00 | 0.00 | 0.00 | 66 | 1015.9 |
| 20260505140422 | 56 | 319 | 5.0 | 14.0 | 0.00 | 0.00 | 0.00 | 66 | 1015.4 |
| 20260505124921 | 56 | 326 | 9.0 | 17.0 | 0.00 | 0.00 | 0.00 | 61 | 1015.2 |
| 20260505124422 | 55 | 269 | 11.0 | 16.0 | 0.00 | 0.00 | 0.00 | 62 | 1015.2 |
| 20260505123920 | 55 | 272 | 7.0 | 15.0 | 0.00 | 0.00 | 0.00 | 61 | 1015.2 |
| 20260505123421 | 56 | 299 | 7.0 | 15.0 | 0.00 | 0.00 | 0.00 | 61 | 1015.3 |
| 20260505123144 | 56 | 312 | 6.0 | 15.0 | 0.00 | 0.00 | 0.00 | 61 | 1015.4 |
| 20260505122421 | 56 | 20 | 4.0 | 7.0 | 0.00 | 0.00 | 0.00 | 60 | 1015.4 |
| 20260505121919 | 56 | 310 | 2.0 | 10.0 | 0.00 | 0.00 | 0.00 | 61 | 1015.3 |
| 20260505121420 | 55 | 307 | 5.0 | 10.0 | 0.00 | 0.00 | 0.00 | 61 | 1015.3 |
| 20260505120919 | 55 | 293 | 4.0 | 7.0 | 0.00 | 0.00 | 0.00 | 61 | 1015.4 |
| 20260505120420 | 55 | 312 | 3.0 | 10.0 | 0.00 | 0.00 | 0.00 | 64 | 1015.4 |
| 20260505115919 | 55 | 331 | 5.0 | 10.0 | 0.00 | 0.00 | 0.00 | 64 | 1015.4 |
| 20260505115420 | 55 | 333 | 4.0 | 7.0 | 0.00 | 0.00 | 0.00 | 65 | 1015.4 |
| 20260505114919 | 55 | 316 | 6.0 | 7.0 | 0.00 | 0.00 | 0.00 | 66 | 1015.4 |
| 20260505114421 | 55 | 323 | 4.0 | 6.0 | 0.00 | 0.00 | 0.00 | 65 | 1015.4 |
| 20260505113919 | 55 | 319 | 5.0 | 6.0 | 0.00 | 0.00 | 0.00 | 65 | 1015.4 |
| 20260505113654 | 55 | 330 | 3.0 | 5.0 | 0.00 | 0.00 | 0.00 | 65 | 1015.4 |
| 20260505112920 | 55 | 316 | 2.0 | 6.0 | 0.00 | 0.00 | 0.00 | 66 | 1015.5 |
| 20260505112628 | 55 | 292 | 1.0 | 5.0 | 0.00 | 0.00 | 0.00 | 66 | 1015.4 |
| 20260505112617 | 55 | 314 | 3.0 | 6.0 | 0.00 | 0.00 | 0.00 | 65 | 1015.5 |
| 20260505111420 | 55 | 39 | 3.0 | 5.0 | 0.00 | 0.00 | 0.00 | 66 | 1015.5 |
| 20260505110919 | 55 | 326 | 2.0 | 4.0 | 0.00 | 0.00 | 0.00 | 66 | 1015.4 |
| 20260505110420 | 55 | 324 | 2.0 | 7.0 | 0.00 | 0.00 | 0.00 | 67 | 1015.4 |
| 20260505101917 | 55 | 309 | 7.0 | 11.0 | 0.00 | 0.00 | 0.00 | 65 | 1015.4 |
| 20260505101417 | 55 | 310 | 2.0 | 10.0 | 0.00 | 0.00 | 0.00 | 65 | 1015.4 |
| 20260505100916 | 56 | 271 | 5.0 | 10.0 | 0.00 | 0.00 | 0.00 | 63 | 1015.5 |
| 20260505100418 | 56 | 333 | 2.0 | 7.0 | 0.00 | 0.00 | 0.00 | 61 | 1015.4 |
| 20260505095917 | 56 | 330 | 2.0 | 6.0 | 0.00 | 0.00 | 0.00 | 59 | 1015.5 |
| 20260505095417 | 56 | 329 | 2.0 | 6.0 | 0.00 | 0.00 | 0.00 | 60 | 1015.6 |
| 20260505094916 | 56 | 307 | 4.0 | 13.0 | 0.00 | 0.00 | 0.00 | 59 | 1015.6 |
| 20260505094416 | 56 | 288 | 7.0 | 13.0 | 0.00 | 0.00 | 0.00 | 59 | 1015.6 |
| 20260505093915 | 56 | 303 | 5.0 | 9.0 | 0.00 | 0.00 | 0.00 | 60 | 1015.7 |
| 20260505093903 | 56 | 299 | 3.0 | 9.0 | 0.00 | 0.00 | 0.00 | 59 | 1015.7 |
| 20260505092915 | 56 | 226 | 2.0 | 5.0 | 0.00 | 0.00 | 0.00 | 59 | 1015.8 |
| 20260505092415 | 55 | 217 | 3.0 | 5.0 | 0.00 | 0.00 | 0.00 | 59 | 1015.9 |
| 20260505091915 | 56 | 220 | 2.0 | 4.0 | 0.00 | 0.00 | 0.00 | 59 | 1016.0 |
| 20260505091415 | 56 | 313 | 2.0 | 3.0 | 0.00 | 0.00 | 0.00 | 60 | 1015.9 |
| 20260505091359 | 56 | 312 | 0.0 | 2.0 | 0.00 | 0.00 | 0.00 | 66 | 1016.0 |
| 20260505090414 | 56 | 312 | 1.0 | 2.0 | 0.00 | 0.00 | 0.00 | 66 | 1016.1 |
| 20260505085915 | 56 | 312 | 1.0 | 2.0 | 0.00 | 0.00 | 0.00 | 67 | 1016.1 |
| 20260505085414 | 55 | 309 | 1.0 | 2.0 | 0.00 | 0.00 | 0.00 | 66 | 1016.2 |
| 20260505084915 | 55 | 309 | 1.0 | 5.0 | 0.00 | 0.00 | 0.00 | 67 | 1016.2 |
| 20260505084415 | 55 | 306 | 3.0 | 5.0 | 0.00 | 0.00 | 0.00 | 67 | 1016.2 |
| 20260505083914 | 56 | 338 | 2.0 | 4.0 | 0.00 | 0.00 | 0.00 | 67 | 1016.3 |
| 20260505083414 | 56 | 341 | 2.0 | 3.0 | 0.00 | 0.00 | 0.00 | 70 | 1016.3 |
| 20260505082914 | 56 | 341 | 2.0 | 4.0 | 0.00 | 0.00 | 0.00 | 68 | 1016.2 |
| 20260505082634 | 56 | 341 | 2.0 | 4.0 | 0.00 | 0.00 | 0.00 | 69 | 1016.3 |